TimeEDT,TemperatureF,Dew PointF,Humidity,Sea Level PressureIn,VisibilityMPH,Wind Direction,Wind SpeedMPH,Gust SpeedMPH,PrecipitationIn,Events,Conditions,WindDirDegrees,DateUTC
12:15 AM,60.8,53.6,77,29.86,10.0,North,6.9,-,N/A,,Clear,360,2012-10-28 04:15:00
12:35 AM,57.2,53.6,88,29.86,10.0,NNW,5.8,-,N/A,,Partly Cloudy,340,2012-10-28 04:35:00
12:55 AM,60.8,53.6,77,29.85,10.0,North,5.8,-,N/A,,Mostly Cloudy,10,2012-10-28 04:55:00
1:15 AM,60.8,53.6,77,29.84,10.0,North,6.9,-,N/A,,Mostly Cloudy,350,2012-10-28 05:15:00
1:55 AM,59.0,55.4,88,29.85,10.0,NNW,5.8,-,N/A,,Partly Cloudy,340,2012-10-28 05:55:00
2:15 AM,57.2,55.4,94,29.84,10.0,North,6.9,-,N/A,,Mostly Cloudy,350,2012-10-28 06:15:00
2:35 AM,59.0,55.4,88,29.84,10.0,North,8.1,-,N/A,,Overcast,350,2012-10-28 06:35:00
2:55 AM,57.2,55.4,94,29.83,10.0,North,9.2,-,N/A,,Overcast,360,2012-10-28 06:55:00
3:15 AM,57.2,55.4,94,29.83,10.0,North,9.2,-,N/A,,Overcast,360,2012-10-28 07:15:00
3:35 AM,57.2,55.4,94,29.82,10.0,North,10.4,-,N/A,,Overcast,350,2012-10-28 07:35:00
3:55 AM,57.2,53.6,88,29.81,10.0,North,11.5,-,N/A,,Scattered Clouds,350,2012-10-28 07:55:00
4:15 AM,57.2,53.6,88,29.80,10.0,NNE,8.1,-,N/A,,Partly Cloudy,20,2012-10-28 08:15:00
4:35 AM,57.2,53.6,88,29.81,10.0,NNW,10.4,-,N/A,,Scattered Clouds,340,2012-10-28 08:35:00
4:55 AM,57.2,53.6,88,29.80,10.0,North,11.5,-,N/A,,Mostly Cloudy,10,2012-10-28 08:55:00
5:15 AM,57.2,53.6,88,29.80,10.0,North,11.5,16.1,N/A,,Overcast,10,2012-10-28 09:15:00
5:35 AM,57.2,51.8,82,29.80,10.0,North,11.5,-,N/A,,Overcast,360,2012-10-28 09:35:00
5:55 AM,57.2,51.8,82,29.80,10.0,NNE,8.1,-,N/A,,Overcast,20,2012-10-28 09:55:00
6:15 AM,57.2,51.8,82,29.80,10.0,North,11.5,-,N/A,,Overcast,350,2012-10-28 10:15:00
6:30 AM,57.2,50.0,77,29.78,10.0,North,13.8,-,N/A,,Overcast,10,2012-10-28 10:30:00
7:50 AM,57.2,51.8,82,29.79,10.0,North,10.4,-,N/A,,Overcast,10,2012-10-28 11:50:00
8:55 AM,59.0,51.8,77,29.79,10.0,NNE,10.4,-,N/A,,Overcast,30,2012-10-28 12:55:00
9:45 AM,59.0,48.2,67,29.78,10.0,NNE,11.5,20.7,N/A,,Overcast,30,2012-10-28 13:45:00
10:45 AM,59.0,42.8,55,29.78,10.0,NE,11.5,16.1,N/A,,Scattered Clouds,40,2012-10-28 14:45:00
1:45 PM,59.0,44.6,59,29.70,10.0,NNE,12.7,23.0,N/A,,Scattered Clouds,30,2012-10-28 17:45:00
4:45 PM,57.2,48.2,72,29.66,10.0,North,13.8,23.0,N/A,,Overcast,360,2012-10-28 20:45:00
5:45 PM,55.4,50.0,82,29.67,10.0,North,9.2,16.1,N/A,,Overcast,10,2012-10-28 21:45:00
6:55 PM,55.4,50.0,82,29.67,10.0,North,16.1,26.5,N/A,,Overcast,10,2012-10-28 22:55:00
7:45 PM,53.6,51.8,94,29.67,4.0,North,13.8,19.6,N/A,Rain,Rain,10,2012-10-28 23:45:00
7:55 PM,53.6,51.8,94,29.67,3.0,North,12.7,-,N/A,,Overcast,350,2012-10-28 23:55:00
8:15 PM,53.6,51.8,94,29.66,3.0,North,11.5,21.9,N/A,,Overcast,350,2012-10-29 00:15:00
8:35 PM,53.6,51.8,94,29.65,4.0,North,15.0,18.4,N/A,,Overcast,350,2012-10-29 00:35:00
8:55 PM,53.6,51.8,94,29.65,4.0,North,17.3,23.0,N/A,,Overcast,350,2012-10-29 00:55:00
9:35 PM,53.6,51.8,94,29.64,5.0,North,16.1,-,N/A,,Overcast,350,2012-10-29 01:35:00
9:55 PM,53.6,51.8,94,29.64,10.0,North,15.0,20.7,N/A,,Overcast,350,2012-10-29 01:55:00
10:15 PM,53.6,51.8,94,29.63,10.0,North,13.8,25.3,N/A,,Overcast,350,2012-10-29 02:15:00
10:35 PM,53.6,51.8,94,29.63,10.0,North,11.5,18.4,N/A,,Overcast,350,2012-10-29 02:35:00
10:55 PM,53.6,51.8,94,29.63,10.0,North,12.7,-,N/A,,Overcast,350,2012-10-29 02:55:00
11:35 PM,53.6,51.8,94,29.61,10.0,North,16.1,21.9,N/A,,Overcast,350,2012-10-29 03:35:00
11:55 PM,53.6,51.8,94,29.61,7.0,North,15.0,20.7,N/A,,Overcast,350,2012-10-29 03:55:00